Hourly Data Report for May 25, 2016

All times are specified in Local Standard Time (LST). Add 1 hour to adjust for Daylight Saving Time where and when it is observed.

LA RONGE RCS
SASKATCHEWAN

55°08'47.020" N
105°16'13.030" W
378.60 m
4064149
71586
XOX

Download Data

Hourly Data (May 2016)
Hourly Data Report for May 25, 2016
TIME Temp Definition
°C
Dew Point Definition
°C
Rel Hum Definition
%
Wind Dir Definition
10's deg

Wind Spd Definition
km/h
Visibility Definition
km
Stn Press Definition
kPa
Hmdx Definition


Wind Chill Definition


Weather Definition


00:00 9.6 7.0 84 19 6   96.90     LegendNANA
01:00 8.9 6.6 86 17 9   96.86     LegendNANA
02:00 8.0 6.2 88 16 8   96.87     LegendNANA
03:00 6.9 5.5 91 16 3   96.89     LegendNANA
04:00 7.6 6.4 92 17 6   96.89     LegendNANA
05:00 8.1 6.3 89 18 6   96.91     LegendNANA
06:00 8.9 6.8 87 20 4   96.93     LegendNANA
07:00 9.6 6.8 83 18 6   96.92     LegendNANA
08:00 10.0 6.9 81 19 7   96.92     LegendNANA
09:00 10.2 6.9 80 19 7   96.95     LegendNANA
10:00 10.3 6.6 78 19 8   96.93     LegendNANA
11:00 10.7 6.7 76 15 12   96.93     LegendNANA
12:00 12.3 7.0 70 17 5   96.90     LegendNANA
13:00 13.8 7.6 66 5 12   96.85     LegendNANA
14:00 15.5 7.9 61 10 6   96.80     LegendNANA
15:00 15.2 7.4 60 5 15   96.75     LegendNANA
16:00 18.5 8.6 52 8 6   96.71     LegendNANA
17:00 18.2 8.0 51 6 13   96.68     LegendNANA
18:00 18.4 8.2 51 6 9   96.66     LegendNANA
19:00 19.3 7.6 47 12 8   96.67     LegendNANA
20:00 18.3 6.7 47 13 8   96.68     LegendNANA
21:00 16.2 7.4 56 17 5   96.69     LegendNANA
22:00 13.1 7.8 71 17 8   96.69     LegendNANA
23:00 11.3 7.7 78 0 1   96.68     LegendNANA

Notes on Data Quality.

Legend

  • E = Estimated
  • M = Missing
  • NA = Not Available
Date modified: